Welcome to the New NWS' Forecast!
Most changes are behind the scenes, but click here for differences you might notice.
Latest weather observations around

Albuquerque, Albuquerque International Airport (KABQ)

Using English Units (Switch to International System of Units)
Date/ Time (MST) Wind (mph) Vis. (mi) Weather Sky Cond. Temp (°F) Rel. Humidity Wind Chill (°F) Heat Index (°F) Pressure Precip. (in)
Air Dwpt 6 hour Altimeter (inHg) Sea level (inHg) 1 hr 3 hr 6 hr
Max Min
Nov 22 02:52 N 11 10 Mostly Clear FEW130 FEW250 42 27     55% 36   30.38 30.28      
Nov 22 01:52 N 8 10 Partly Cloudy SCT250 44 26     49% 40   30.38 30.27      
Nov 22 00:52 N 7 10 Mostly Clear FEW250 46 24     42% 42   30.39 30.28      
Nov 21 23:52 NNE 10 10 Partly Cloudy SCT250 49 22     34% 45   30.4 30.28      
Nov 21 22:52   10 Mostly Clear FEW250 50 28     42%     30.38 30.28      
Nov 21 21:52   10 Mostly Clear FEW250 52 27     38%     30.38 30.27      
Nov 21 20:52   10 Mostly Clear FEW250 53 25     33%     30.35 30.26      
Nov 21 19:52   10 Mostly Clear FEW250 54 20     26%     30.33 30.24      
Nov 21 18:52   10 Partly Cloudy SCT250 57 18     21%     30.31 30.2      
Nov 21 17:52   10 Mostly Cloudy BKN300 56 19     23%     30.28 30.19      
Nov 21 16:52 Calm 10 Mostly Cloudy BKN350 63 20     19%     30.26 30.13      
Nov 21 15:52 NNE 5 10 Mostly Cloudy BKN350 65 20     18%     30.25 30.11      
Nov 21 14:52 N 3 10 Mostly Cloudy BKN350 64 18     17%     30.23 30.09      
Nov 21 13:52 E 5 10 Mostly Cloudy BKN350 62 15     16%     30.24 30.11      
Nov 21 12:52 E 5 10 Mostly Cloudy FEW180 BKN350 60 11     14%     30.24 30.12      
Nov 21 11:52 NNE 7 10 Mostly Cloudy FEW180 BKN350 58 8     13%     30.25 30.15      
Nov 21 10:52 N 8 10 Mostly Cloudy FEW180 BKN350 55 9     16%     30.27 30.17      
Nov 21 09:52 N 13 10 Cloudy FEW180 OVC350 51 7     16%     30.27 30.18      
Nov 21 08:52 N 11 10 Cloudy FEW130 OVC340 49 7     18% 44   30.25 30.16      
Nov 21 07:52 N 10 10 Cloudy FEW100 SCT130 BKN180 OVC250 46 6     19% 41   30.22 30.15      
Nov 21 06:52 N 13 10 Mostly Cloudy FEW090 BKN130 BKN180 47 4     17% 41   30.22 30.13      
Nov 21 05:52 N 13 10 Partly Cloudy FEW080 FEW120 SCT200 45 4     18% 39   30.19 30.1      
Nov 21 04:52   10 Partly Cloudy FEW100 FEW250 SCT300 48 3     15%     30.16 30.06      
Nov 21 03:52   10 Mostly Cloudy FEW200 FEW250 BKN300 48 2     15%     30.14 30.02      
Nov 21 02:52 N 10 10 Partly Cloudy FEW200 SCT250 SCT300 49 0     13% 45   30.12 30      
Nov 21 01:52 N 7 10 Mostly Cloudy SCT250 BKN300 46 0     14% 42   30.12 30.01      
Nov 21 00:52 N 6 10 Mostly Cloudy BKN250 45 1     16% 42   30.11 30.01      
Nov 20 23:52 WNW 6 10 Mostly Cloudy BKN250 44 1     16% 41   30.12 30.04      
Nov 20 22:52 W 5 10 Mostly Cloudy BKN250 47 -2     13% 45   30.12 30.03      
Nov 20 21:52 NNW 7 10 Mostly Cloudy BKN250 49 -4     11% 46   30.12 30.06      
Nov 20 20:52 N 7 10 Mostly Cloudy BKN250 50 0     12% 47   30.12 30.07      
Nov 20 19:52 Calm 10 Mostly Cloudy BKN250 48 3     15%     30.11 30.08      
Nov 20 18:52 Calm 10 Mostly Cloudy FEW150 BKN300 50 2     14%     30.09 30.06      
Nov 20 17:52 WSW 3 10 Mostly Cloudy FEW170 BKN300 53        %     30.08 30.03      
Nov 20 16:52 SE 3 10 Mostly Cloudy FEW160 BKN300 53 0     11%     30.07 30.03      
Nov 20 15:52 Calm 10 Cloudy FEW150 OVC350 57        %     30.08 30.02      
Nov 20 14:52 Calm 10 Cloudy FEW170 OVC340 56        %     30.08 30.04      
Nov 20 13:52 Calm 10 Mostly Cloudy BKN340 57 -2     9%     30.1 30.04      
Nov 20 12:52 Calm 10 Cloudy OVC350 54        %     30.11 30.06      
Nov 20 11:52 SW 6 10 Cloudy FEW200 OVC280 50 4     15% 48   30.14 30.09      
Nov 20 10:52 WSW 3 10 Cloudy FEW200 OVC250 48 6     18% 47   30.18 30.13      
Nov 20 09:52 Calm 10 Mostly Cloudy FEW200 BKN250 40 9     27%     30.19 30.17      
Nov 20 08:52 Calm 10 Mostly Cloudy FEW200 BKN250 38 8     28%     30.18 30.17      
Nov 20 07:52 NE 6 10 Cloudy FEW035 FEW110 SCT200 OVC250 33 7     33% 28   30.2 30.2      
Nov 20 06:52 N 7 10 Mostly Cloudy FEW090 SCT180 BKN240 29 8     41% 22   30.19 30.21      
Nov 20 05:52 WNW 5 10 Partly Cloudy FEW100 FEW150 SCT220 30 7     37% 25   30.17 30.15      
Nov 20 04:52 Calm 10 Mostly Clear FEW100 FEW220 30 7     37%     30.17 30.14      
Nov 20 03:52 NW 7 10 Clear CLR 31 5     33% 24   30.17 30.13      
Nov 20 02:52 SE 3 10 Clear CLR 28 4     35% 24   30.17 30.15      
Nov 20 01:52 Calm 10 Clear CLR 32 5     31%     30.16 30.13      
Nov 20 00:52 NNE 6 10 Clear CLR 34 8     33% 29   30.18 30.13      
Nov 19 23:52 W 6 10 Clear CLR 36 6     28% 31   30.18 30.15      
Nov 19 22:52 Calm 10 Clear CLR 38 4     24%     30.19 30.16      
Nov 19 21:52 Calm 10 Clear CLR 39 3     22%     30.19 30.17      
Nov 19 20:52 ESE 3 10 Clear CLR 38 1     21% 36   30.18 30.19      
Nov 19 19:52 SE 3 10 Mostly Clear FEW250 41 1     18% 39   30.18 30.19      
Nov 19 18:52 ESE 7 10 Partly Cloudy FEW210 SCT300 40 0     18% 35   30.16 30.17      
Nov 19 17:52 S 5 10 Mostly Cloudy SCT210 BKN300 48 3     15% 46   30.15 30.14      
Nov 19 16:52 SW 3 10 Mostly Cloudy SCT210 BKN300 51 2     13%     30.15 30.12      
Nov 19 15:52 Calm 10 Mostly Cloudy FEW200 BKN300 52 1     12%     30.17 30.13      
Nov 19 14:52 Calm 10 Partly Cloudy FEW200 SCT300 52 1     12%     30.19 30.14      
Nov 19 13:52 Calm 10 Mostly Cloudy FEW200 BKN300 50 1     13%     30.22 30.18      
Nov 19 12:52 Calm 10 Mostly Cloudy FEW200 BKN300 51 9     18%     30.25 30.2      
Nov 19 11:52 Calm 10 Mostly Cloudy FEW200 BKN300 46 8     21%     30.28 30.25      
Nov 19 10:52 Calm 10 Mostly Cloudy FEW200 BKN300 42 10     26%     30.32 30.3      
Nov 19 09:52 NNW 5 10 Mostly Cloudy FEW200 BKN300 38 10     31% 34   30.34 30.33      
Nov 19 08:52 N 7 10 Partly Cloudy FEW150 SCT300 34 10     36% 28   30.34 30.34      
Nov 19 07:52 NNE 9 10 Mostly Clear FEW200 31 9     39% 23   30.34 30.34      
Nov 19 06:52 N 9 10 Mostly Clear FEW150 FEW250 30 8     39% 22   30.32 30.32      
Nov 19 05:52 NNE 8 10 Clear CLR 30 8     39% 22   30.32 30.31      
Nov 19 04:52 N 9 10 Clear CLR 31 8     38% 23   30.32 30.3      
Nov 19 03:52 N 8 10 Clear CLR 32 8     36% 25   30.33 30.29      
Nov 19 02:52 NW 5 10 Clear CLR 33 8     35% 29   30.35 30.32      
Jun 11 21:52 SSE 9 10 Clear   76 5     6%   74 29.94 29.67      
Jun 11 13:52 3 10 Clear CLR 86 9     5%   82 29.97 29.68      
Jun 11 10:52 Calm 10 Mostly Clear FEW220 79 15     9%   77 30.01 29.75      
Jun 10 06:52 ESE 5 10 Clear CLR 65 31     28%     30.01 29.72      
Jun 09 01:52   10 Clear   71 48     44%   70 30.04 29.76      
Jun 08 22:42   10 Mostly Cloudy FEW150 BKN250 76        %     30.04        
Jun 08 20:52 NNW 10 10 Mostly Cloudy FEW160 BKN250 86 19     8%   82 29.98 29.71      
Jun 08 19:52 NW 14 10 Mostly Cloudy SCT160 BKN250 90 14     6%   85 29.97 29.68      
Jun 08 00:52 SE 8 10 Mostly Cloudy FEW140 BKN250 70 47     44%     30.19 29.93      
Jun 07 07:52 E 10 10 Partly Cloudy SCT250 69 48     47%     30.24 29.99      
Jun 05 19:52 ENE 9 10 Mostly Cloudy BKN130 BKN250 89        %     30 29.72